[[{"header":{"parameterUnit":"m.s-1","parameterCategory":1,"la1":30.2991,"la2":30.254,"lo1":-89.0895,"lo2":-89.0444,"dy":0.0017,"dx":0.0017,"nx":28,"ny":28,"refTime":"2024-04-22T21:00:00:Z","depth":0,"parameterNumber":2,"parameterNumberName":"U-component_of_WINDS"},"data":[0,0,0,0,0,0,0,0,0,0,0,0,0,0,0,0,0,0,0,0,0,0,0,0,0,0,0,0,0,0,0,0,0,0,0,0,0,0,0,0,0,0,0,0,0,0,0,0,0,0,0,0,0,0,0,0,0,0,-0.2136,-0.2137,0,-0.2156,-0.2156,-0.2156,-0.216,-0.216,-0.216,-0.216,-0.2182,-0.2182,-0.2183,0,0,0,0,0,0,0,0,0,0,0,0,0,-0.2105,-0.2105,-0.2136,-0.2137,-0.2137,-0.2156,-0.2156,-0.2156,-0.216,-0.216,-0.216,-0.216,-0.2182,-0.2182,-0.2183,0,0,0,0,0,0,0,0,0,0,0,0,0,-0.2121,-0.2105,-0.2136,-0.2141,-0.2142,-0.2156,-0.2156,-0.2157,-0.216,-0.216,-0.216,-0.216,-0.2181,-0.2182,-0.2183,-0.2195,0,0,-0.2187,-0.2187,0,0,0,0,0,0,0,0,-0.212,-0.2122,-0.214,-0.2141,-0.2141,-0.2155,-0.2153,-0.2169,-0.216,-0.2153,-0.216,-0.216,-0.2173,-0.2175,-0.2179,-0.2196,-0.2197,-0.2187,-0.2187,-0.2188,-0.2188,0,0,0,0,0,0,0,-0.2119,-0.2121,-0.2144,-0.214,-0.2141,-0.2143,-0.2145,-0.2156,-0.2164,-0.2154,-0.2154,-0.2156,-0.2174,-0.2178,-0.218,-0.2197,-0.2187,-0.2188,-0.2188,-0.2189,-0.2225,-0.2225,0,0,0,0,0,0,-0.2116,-0.212,-0.2144,-0.2145,-0.213,-0.2144,-0.2146,-0.2151,-0.2164,-0.2166,-0.2157,-0.2157,-0.2176,-0.2179,-0.2181,-0.2196,-0.2188,-0.2189,-0.219,-0.2225,-0.2225,-0.2226,0,0,0,0,0,0,-0.2116,-0.2118,-0.2143,-0.2133,-0.2136,-0.2144,-0.215,-0.2152,-0.2156,-0.2166,-0.2168,-0.216,-0.2176,-0.2179,-0.2191,-0.2196,-0.2189,-0.219,-0.2224,-0.2225,-0.2225,-0.2225,0,0,0,0,0,0,-0.2115,-0.2118,-0.2122,-0.2133,-0.2136,-0.2152,-0.2151,-0.2152,-0.2158,-0.2158,-0.217,-0.2171,-0.2176,-0.219,-0.2192,-0.2198,-0.2191,-0.2224,-0.2225,-0.2225,-0.2225,-0.2226,-0.2226,0,0,0,0,0,-0.2114,-0.2121,-0.2122,-0.2125,-0.2141,-0.2153,-0.2155,-0.216,-0.2158,-0.2163,-0.2169,-0.2171,-0.2195,-0.2191,-0.2194,-0.22,-0.2224,-0.2225,-0.2225,-0.2225,-0.2225,-0.2226,0,0,0,0,0,0,-0.2112,-0.2123,-0.2124,-0.2135,-0.2143,-0.2153,-0.2159,-0.2161,-0.217,-0.2169,-0.2176,-0.2179,-0.2191,-0.2196,-0.2191,-0.2212,-0.221,-0.2211,-0.2208,-0.2209,-0.221,-0.2208,-0.2192,0,0,0,0,0,-0.2112,-0.212,-0.213,-0.2139,-0.2143,-0.215,-0.2155,-0.2159,-0.2167,-0.2171,-0.2178,-0.2187,-0.2197,-0.2203,-0.2213,-0.2226,-0.2229,-0.2231,-0.2232,-0.2232,-0.2234,-0.2242,-0.2244,-0.2228,-0.2228,-0.2228,0,0,-0.2114,-0.2121,-0.2126,-0.2139,-0.2145,-0.2154,-0.2153,-0.2162,-0.2169,-0.2172,-0.2184,-0.219,-0.2201,-0.2214,-0.222,-0.2219,-0.2239,-0.2233,-0.2234,-0.2235,-0.2243,-0.2245,-0.2246,-0.2228,-0.2228,-0.2228,0,0,-0.2122,-0.2128,-0.2136,-0.2143,-0.2153,-0.2158,-0.216,-0.217,-0.2174,-0.2186,-0.2189,-0.2198,-0.2214,-0.2222,-0.2228,-0.2239,-0.2242,-0.2242,-0.2246,-0.2254,-0.2256,-0.2257,-0.2262,-0.2264,-0.2243,-0.2243,-0.2243,0,-0.2124,-0.2136,-0.2141,-0.215,-0.2156,-0.2159,-0.2168,-0.2175,-0.2187,-0.2191,-0.219,-0.2211,-0.2218,-0.2234,-0.2237,-0.2241,-0.2244,-0.2241,-0.2255,-0.2256,-0.2257,-0.2262,-0.2264,-0.2243,-0.2243,-0.2243,-0.2243,0,-0.2138,-0.2147,-0.2152,-0.2164,-0.2171,-0.218,-0.2187,-0.2193,-0.2196,-0.2201,-0.2214,-0.2223,-0.2235,-0.2238,-0.2241,-0.2255,-0.2254,-0.2254,-0.2251,-0.2259,-0.2264,-0.2266,-0.2244,-0.2244,-0.2244,-0.2244,0,0,-0.2145,-0.2159,-0.2161,-0.2167,-0.2178,-0.2186,-0.2195,-0.2206,-0.2212,-0.2221,-0.223,-0.2244,-0.2244,-0.2251,-0.2255,-0.2262,-0.2272,-0.2261,-0.2261,-0.2264,-0.2288,-0.2289,-0.2291,-0.2273,-0.2273,-0.2274,-0.2288,0,-0.2155,-0.2172,-0.2176,-0.2191,-0.22,-0.2203,-0.2212,-0.222,-0.2226,-0.2235,-0.2241,-0.2251,-0.225,-0.2255,-0.2262,-0.2269,-0.2277,-0.2268,-0.2283,-0.2283,-0.2281,-0.2293,-0.2294,-0.2306,-0.2289,-0.229,-0.229,0,-0.2169,-0.2177,-0.2193,-0.2203,-0.2207,-0.2215,-0.2226,-0.2234,-0.2244,-0.2248,-0.2255,-0.2259,-0.227,-0.2267,-0.2284,-0.2277,-0.2284,-0.2289,-0.2289,-0.2291,-0.2287,-0.2296,-0.231,-0.2312,-0.2293,-0.2293,-0.2292,0,-0.2173,-0.2189,-0.22,-0.2205,-0.2218,-0.2223,-0.2229,-0.2238,-0.2245,-0.2255,-0.2259,-0.2271,-0.2277,-0.2286,-0.2293,-0.229,-0.2309,-0.2306,-0.2314,-0.2314,-0.2318,-0.2318,-0.2334,-0.2321,-0.2321,-0.2321,-0.2321,0,-0.2184,-0.2194,-0.2203,-0.221,-0.2221,-0.2227,-0.2238,-0.2244,-0.2252,-0.2262,-0.2265,-0.2274,-0.2282,-0.2292,-0.2298,-0.2311,-0.2314,-0.2318,-0.2319,-0.2318,-0.2318,-0.2323,-0.2322,-0.2321,-0.2321,-0.2321,-0.2321,0,-0.2192,-0.2198,-0.2211,-0.2222,-0.2225,-0.2232,-0.2242,-0.225,-0.2256,-0.2267,-0.227,-0.228,-0.2292,-0.2299,-0.2315,-0.2319,-0.2334,-0.2335,-0.233,-0.2331,-0.2339,-0.2338,-0.2359,-0.2363,-0.2346,-0.2346,-0.2347,0,-0.2199,-0.2206,-0.2218,-0.2224,-0.2229,-0.2239,-0.2246,-0.2252,-0.2259,-0.2272,-0.2278,-0.229,-0.23,-0.232,-0.2329,-0.2341,-0.2343,-0.2349,-0.2344,-0.2343,-0.2344,-0.2344,-0.2345,-0.235,-0.235,-0.235,-0.235,0,-0.221,-0.2213,-0.2222,-0.2233,-0.2241,-0.225,-0.2259,-0.2264,-0.2272,-0.228,-0.2292,-0.23,-0.2316,-0.2328,-0.2341,-0.2348,-0.2351,-0.2352,-0.2354,-0.2353,-0.2351,-0.2353,-0.2333,-0.2351,-0.2351,-0.2351,-0.2351,-0.2351,-0.2218,-0.2226,-0.2235,-0.2246,-0.2253,-0.2261,-0.2269,-0.2276,-0.2286,-0.2299,-0.2302,-0.2315,-0.2326,-0.2344,-0.2351,-0.2362,-0.2362,-0.2365,-0.2366,-0.2367,-0.2368,-0.2348,-0.2365,-0.2365,-0.2365,-0.2365,-0.2365,0,-0.2231,-0.2238,-0.2247,-0.2259,-0.2268,-0.2269,-0.2279,-0.2287,-0.2298,-0.2307,-0.2317,-0.2332,-0.2345,-0.2354,-0.2367,-0.2375,-0.2376,-0.2378,-0.2378,-0.238,-0.2367,-0.2364,-0.2376,-0.2376,-0.2376,-0.2376,-0.2376,-0.2376,-0.2239,-0.2251,-0.2255,-0.2272,-0.2279,-0.2291,-0.2297,-0.2305,-0.2313,-0.2329,-0.2339,-0.2345,-0.2355,-0.2369,-0.2381,-0.2384,-0.2389,-0.239,-0.2394,-0.2382,-0.238,-0.2379,-0.2376,-0.2391,-0.2391,-0.2405,-0.2405,-0.2406]},{"header":{"parameterUnit":"m.s-1","parameterCategory":1,"la1":30.2991,"la2":30.254,"lo1":-89.0895,"lo2":-89.0444,"dy":0.0017,"dx":0.0017,"nx":28,"ny":28,"refTime":"2024-04-22T21:00:00:Z","depth":0,"parameterNumber":3,"parameterNumberName":"V-component_of_WINDS"},"data":[0,0,0,0,0,0,0,0,0,0,0,0,0,0,0,0,0,0,0,0,0,0,0,0,0,0,0,0,0,0,0,0,0,0,0,0,0,0,0,0,0,0,0,0,0,0,0,0,0,0,0,0,0,0,0,0,0,0,4.5381,4.5381,0,4.5387,4.5387,4.5387,4.5309,4.5307,4.5305,4.5303,4.5309,4.5311,4.5313,0,0,0,0,0,0,0,0,0,0,0,0,0,4.5301,4.5303,4.5381,4.5381,4.5381,4.5387,4.5387,4.5387,4.531,4.5307,4.5304,4.5302,4.5308,4.5311,4.5314,0,0,0,0,0,0,0,0,0,0,0,0,0,4.5324,4.5304,4.5381,4.5343,4.534,4.5387,4.5387,4.5387,4.531,4.5307,4.5304,4.5301,4.5308,4.5311,4.5314,4.5397,0,0,4.5324,4.5325,0,0,0,0,0,0,0,0,4.5323,4.5327,4.5349,4.5346,4.5342,4.5344,4.5361,4.539,4.5311,4.5321,4.5303,4.5299,4.5323,4.5325,4.5333,4.5397,4.5398,4.5324,4.5326,4.5327,4.5328,0,0,0,0,0,0,0,4.5322,4.5327,4.5383,4.5349,4.5345,4.5325,4.5325,4.5366,4.534,4.532,4.5315,4.5316,4.5321,4.533,4.5333,4.5398,4.5324,4.5327,4.5329,4.533,4.5527,4.553,0,0,0,0,0,0,4.5325,4.5326,4.5383,4.5383,4.5325,4.5329,4.5329,4.5347,4.5339,4.5335,4.5319,4.5313,4.5326,4.5329,4.5333,4.5427,4.5327,4.533,4.5332,4.5524,4.5528,4.5532,0,0,0,0,0,0,4.5324,4.5331,4.5383,4.5353,4.5358,4.5334,4.5354,4.5348,4.5357,4.5339,4.5333,4.5333,4.5324,4.5328,4.5381,4.5426,4.5332,4.5335,4.552,4.5525,4.553,4.5617,0,0,0,0,0,0,4.5322,4.5331,4.5363,4.5354,4.536,4.5432,4.5357,4.5351,4.5363,4.5355,4.5351,4.5347,4.5322,4.5377,4.5384,4.5429,4.5337,4.5516,4.5522,4.5528,4.561,4.5625,4.5637,0,0,0,0,0,4.5319,4.5388,4.5365,4.5372,4.5399,4.5434,4.5437,4.5407,4.5367,4.5398,4.5386,4.5347,4.542,4.5383,4.539,4.5437,4.5513,4.552,4.5528,4.5604,4.5622,4.5637,0,0,0,0,0,0,4.5403,4.5386,4.536,4.5429,4.5434,4.5421,4.546,4.5427,4.5444,4.5435,4.5397,4.5397,4.5455,4.5452,4.541,4.5515,4.5459,4.5469,4.5515,4.5531,4.5545,4.5543,4.534,0,0,0,0,0,4.543,4.546,4.5444,4.5505,4.5509,4.5484,4.5498,4.5474,4.5478,4.5479,4.5471,4.5476,4.5499,4.5516,4.5537,4.561,4.5607,4.5646,4.5659,4.567,4.5678,4.5713,4.573,4.5556,4.5556,4.5556,0,0,4.5485,4.5479,4.5501,4.5522,4.5523,4.5553,4.5486,4.5523,4.5545,4.5485,4.5533,4.5527,4.553,4.5593,4.562,4.5591,4.5725,4.568,4.5689,4.569,4.5723,4.5739,4.5754,4.5561,4.556,4.5559,0,0,4.56,4.5601,4.565,4.5652,4.5653,4.5636,4.5648,4.5641,4.5634,4.5682,4.5637,4.5663,4.5705,4.5708,4.5715,4.5829,4.5793,4.5837,4.5906,4.5941,4.5955,4.5967,4.6004,4.6019,4.5846,4.5846,4.5846,0,4.5668,4.5713,4.568,4.5718,4.5727,4.5674,4.5723,4.5727,4.5736,4.5743,4.5712,4.5762,4.576,4.5821,4.5848,4.5857,4.5868,4.5836,4.5956,4.5967,4.5978,4.6013,4.6028,4.5851,4.585,4.585,4.5849,0,4.5795,4.5827,4.5867,4.5875,4.5889,4.5933,4.5905,4.5924,4.5899,4.5884,4.5933,4.5929,4.5946,4.596,4.5936,4.6017,4.5999,4.5962,4.5905,4.6,4.6032,4.6046,4.5858,4.5856,4.5855,4.5854,0,0,4.5963,4.5951,4.5966,4.5967,4.5965,4.5988,4.6029,4.6045,4.6061,4.6069,4.61,4.6137,4.6102,4.611,4.6086,4.6118,4.6204,4.6077,4.6076,4.6098,4.629,4.6315,4.6331,4.6182,4.6184,4.6186,4.6288,0,4.6072,4.614,4.611,4.6181,4.6208,4.6157,4.6192,4.6194,4.6182,4.6203,4.6189,4.6214,4.6168,4.6172,4.6201,4.6188,4.6242,4.6181,4.6209,4.621,4.6206,4.6349,4.6376,4.6473,4.6301,4.6303,4.6305,0,4.6209,4.622,4.6293,4.6282,4.6293,4.6325,4.6336,4.6357,4.6358,4.6346,4.6355,4.6323,4.6361,4.6306,4.6357,4.6315,4.6325,4.6321,4.6324,4.6323,4.6261,4.6349,4.6503,4.6517,4.6325,4.6324,4.6322,0,4.632,4.6354,4.6401,4.6404,4.6394,4.6417,4.6414,4.6411,4.6422,4.6433,4.6439,4.6455,4.6462,4.6475,4.6448,4.6411,4.6501,4.6445,4.6491,4.6492,4.651,4.6509,4.6665,4.6522,4.6522,4.6522,4.6522,0,4.6443,4.6489,4.645,4.6479,4.6528,4.6493,4.6543,4.6534,4.6532,4.6557,4.6516,4.654,4.6504,4.6526,4.6505,4.6548,4.6553,4.6544,4.6537,4.6546,4.6547,4.655,4.6541,4.6526,4.6525,4.6524,4.6523,0,4.6575,4.6551,4.6598,4.6584,4.6581,4.6618,4.6605,4.6631,4.6615,4.6648,4.6653,4.6629,4.6652,4.6627,4.6648,4.6634,4.6692,4.6677,4.6691,4.6686,4.6732,4.6727,4.6894,4.6913,4.6761,4.6762,4.6763,0,4.6654,4.6687,4.6676,4.6689,4.6688,4.6711,4.6721,4.6689,4.6701,4.6703,4.6728,4.6746,4.6759,4.6797,4.6782,4.6797,4.678,4.6838,4.6782,4.6789,4.6777,4.6774,4.6776,4.6848,4.685,4.6852,4.6853,0,4.6795,4.6781,4.6797,4.6809,4.6822,4.683,4.6835,4.6849,4.6814,4.683,4.6852,4.6862,4.6882,4.6901,4.6911,4.6908,4.6874,4.6871,4.6881,4.6889,4.6895,4.6889,4.6718,4.6866,4.6865,4.6864,4.6863,4.6863,4.69,4.6926,4.6922,4.694,4.694,4.6945,4.6967,4.6954,4.6971,4.6984,4.6964,4.6991,4.6988,4.6999,4.6999,4.7019,4.6994,4.7011,4.7015,4.7019,4.7024,4.6894,4.7021,4.7021,4.702,4.702,4.702,0,4.7037,4.7031,4.7048,4.7055,4.707,4.7037,4.704,4.7054,4.7077,4.7078,4.7091,4.7114,4.7132,4.7117,4.7131,4.715,4.7134,4.7154,4.7151,4.715,4.7047,4.7034,4.7166,4.7166,4.7166,4.7166,4.7166,4.7166,4.7109,4.715,4.7135,4.7176,4.7169,4.7194,4.7198,4.7202,4.7201,4.7229,4.7243,4.7233,4.7227,4.724,4.7254,4.7249,4.7255,4.728,4.7269,4.7172,4.7158,4.7144,4.7132,4.7282,4.7282,4.737,4.7371,4.7372]}]]